SCP
0 0 0 0 0 0 0 0 0 0 0 0 0 0 0 0 0 0 0 0 0 0 0 0 0 0 0 0 0 0 0 0 0 0 0 0 0 0 0 0 0 0 0 0 0 0 0 0 0 0 0 0 0 -0
0 0 0 0 0 0 0 0 0 0 0 0 0 0 0 0 0 0 0 0 0 0 0 0 0 0 0 0 0 0 0 0 0 0 0 0 0 0 0 0 0 0 0 0 0 0 0 0 -0 -0 0 0 0 -0
0 0 0 0 0 0 0 0 0 0 0 0 0 0 0 0 0 0 0 0 0 0 0 0 0 0 0 0 0 0 0 0 0 0 0 0 0 0 0 0 0 0 0 0 0 0 0 0 -0 0 0 0 0 -0
0 0 0 0 0 0 0 0 0 0 0 0 0 0 0 0 0 0 0 0 0 0 0 0 0 0 0 0 0 0 0 0 0 0 0 0 0 0 0 0 0 0 0 0 0 0 -0 0 0 0 0 0 -0 -0
0 0 0 0 0 0 0 0 0 0 0 0 0 0 0 0 0 0 0 0 0 0 0 0 0 0 0 0 0 0 0 -0 -0 0 0 0 0 0 0 0 0 0 0 0 0 -0 0 0 0 0 -0 -0 -0 -0
0 0 0 0 0 0 0 0 0 0 0 0 0 0 0 0 0 0 0 0 0 0 0 0 0 0 0 0 0 0 -0 -0 -0 -0 0 0 0 0 0 0 0 0 0 0 0 0 0 0 0 -0 0 0 -0 -0
0 0 0 0 0 0 0 0 0 0 0 0 0 0 0 0 0 0 0 0 0 0 0 0 0 0 0 0 0 0 0 -0 -0 -0 0 0 0 0 0 0 0 -0 0 0 0 0 0 0 0 0 0 -0 -0 -0
0 0 0 0 0 0 0 0 0 0 0 0 0 0 0 0 0 0 0 0 0 0 0 0 0 0 0 0 0 0 0 0 -0 0 0 0 0 0 0 0 0 0 0 0 0 0 0 0 -0 0 0 0 -0 -0
0 0 0 0 0 0 0 0 0 0 0 0 0 0 0 0 0 0 0 0 0 0 0 0 0 0 0 0 0 0 0 0 -0 -0 0 0 0 -0 -0 0 0 0 0 0 0 0 0 -0 -0 -0 0 0 -0 -0
0 0 0 0 0 0 0 0 0 0 0 0 0 0 0 0 0 0 0 0 0 0 0 0 0 0 0 0 0 0 0 0 0 0 0 0 0 0 0 -0 0 0 0 0 0 0 0 0 -0 -0 -0 -0 -0 -0
0 0 0 0 0 0 0 0 0 0 0 0 0 0 0 0 0 0 0 0 0 0 0 0 0 0 0 0 0 0 0 0 0 -0 0 -0 0 -0 -0 -0 -0 0 0 0 0 0 0 0 0 0 0 -0 -0 -0
0 0 0 0 0 0 0 0 0 0 0 0 0 0 0 0 0 0 0 0 0 0 0 0 0 0 0 0 0 0 0 0 0 0 -0 -0 0 -0 -0 -0 -0 0 0 0 0 0 0 0 0 0 0 0 0 0
-0 -0 0 0 0 0 0 0 0 0 0 0 0 0 0 0 0 0 0 0 0 0 0 0 0 0 0 -0 -0 -0 0 0 -0 -0 -0 0 -0 -0 -0 -0 0 0 0 0 -0 0 -0 0 0 -0 0 0 0 0
-0 0 0 0 0 0 0 0 0 0 0 0 0 0 0 0 0 0 0 0 0 0 0 0 0 0 0 -0 -0 -0 0 0 0 0 0 0 -0 -0 -0 0 0 0 0 0 -0 0 -0 0 0 0 0 0 0 0
0 0 0 0 0 0 0 0 0 0 0 0 0 0 0 0 0 0 0 0 0 0 0 0 -0 -0 -0 -0 -0 -0 0 0 0 -0 0 0 -0 -0 -0 -0 -0 0 0 -0 -0 -0 0 -0 0 0 0 0 0 0
0 0 0 0 0 0 0 0 0 0 0 0 0 0 0 0 0 0 0 0 0 0 0 0 0 -0 -0 -0 -0 -0 0 0 0 0 -0 -0 -0 -0 -0 -0 -0 -0 0 0 0 -0 0 -0 -0 0 0 -0 0 0
0 0 0 0 0 0 0 0 0 0 0 0 0 0 0 0 0 0 0 0 0 0 0 0 0 -0 -0 -0 -0 0 0 0 -0 0 -0 -0 -0 -0 -0 -0 -0 -0 -0 0 0 -0 -0 -0 0 -0 0 0 0 0
0 0 0 0 0 0 0 0 0 0 0 0 0 0 0 0 0 0 -0 0 0 0 0 0 0 0 -0 -0 -0 0 0 0 0 0 0 -0 -0 -0 -0 -0 -0 -0 -0 -0 -0 -0 -0 -0 -0 -0 0 0 0 0
0 0 0 0 0 0 0 0 0 0 0 0 0 0 0 0 0 0 0 0 0 0 0 -0 -0 -0 -0 -0 -0 0 0 0 -0 -0 0 0 -0 -0 -0 -0 -0 -0 -0 -0 -0 -0 -0 0 -0 -0 -0 0 0 0
0 0 0 0 0 0 0 0 0 0 0 0 0 0 0 0 0 0 0 0 0 0 0 0 -0 -0 -0 -0 0 -0 0 0 0 -0 -0 -0 0 -0 -0 -0 -0 -0 -0 -0 -0 -0 -0 -0 -0 -0 -0 -0 -0 0
0 0 0 0 0 0 0 0 0 0 0 0 0 0 0 0 0 0 0 0 0 0 0 0 0 -0 -0 -0 0 0 0 0 0 0 0 0 -0 0 0 0 -0 -0 -0 -0 -0 -0 -0 -0 -0 0 -0 -0 -0 -0
0 0 0 0 0 0 0 0 0 0 0 0 0 0 0 0 0 0 0 0 0 0 0 0 0 0 0 0 0 0 0 0 -0 -0 0 0 0 0 0 0 0 0 -0 -0 -0 -0 -0 -0 -0 0 -0 0 -0 -0
0 0 0 0 0 0 0 0 0 0 0 0 0 0 0 0 0 0 0 0 0 0 0 0 0 0 0 0 0 0 -0 0 0 0 0 0 0 0 0 0 0 0 0 -0 -0 -0 -0 -0 0 -0 0 -0 -0 -0
0 0 0 0 0 0 0 0 0 0 0 0 0 0 0 0 0 0 0 0 0 0 0 0 0 0 0 0 0 0 -0 -0 -0 0 0 0 0 0 0 0 0 0 0 0 0 -0 -0 0 0 -0 -0 -0 0 0
0 0 0 0 0 0 0 0 0 0 0 0 0 0 0 0 0 0 0 0 0 0 0 0 0 0 0 0 0 -0 -0 -0 -0 -0 -0 0 0 0 0 0 0 0 0 0 0 -0 -0 -0 0 -0 0 -0 -0 0
0 0 0 0 0 0 0 0 0 0 0 0 0 0 0 0 0 0 0 0 0 0 0 0 0 0 0 0 0 0 -0 -0 -0 -0 -0 -0 0 0 0 0 0 0 0 0 0 0 0 -0 -0 -0 0 -0 -0 -0
0 0 0 0 0 0 0 0 0 0 0 0 0 0 0 0 0 0 0 0 0 0 0 0 0 0 0 0 0 0 -0 -0 -0 -0 -0 -0 0 -0 0 0 0 0 0 0 0 0 0 0 0 0 0 0 0 -0
0 0 0 0 0 0 0 0 0 0 0 0 0 0 0 0 0 0 0 0 0 0 0 0 0 0 0 0 0 0 0 -0 -0 -0 0 -0 -0 -0 0 0 0 0 0 0 0 0 0 0 0 0 0 0 0 0
0 0 0 0 0 0 0 0 0 0 0 0 0 0 0 0 0 0 0 0 0 0 0 0 0 0 0 0 0 0 -0 -0 -0 -0 0 0 0 0 0 0 0 0 0 0 0 0 0 0 0 0 0 0 0 0
0 0 0 0 0 0 0 0 0 0 0 0 0 0 0 0 0 0 0 0 0 0 0 0 0 0 0 0 0 0 0 -0 -0 -0 -0 0 0 0 0 0 0 0 0 0 0 0 0 0 0 0 0 0 0 0
0 0 0 0 0 0 0 0 0 0 0 0 0 0 0 0 0 0 0 0 0 0 0 0 0 0 0 0 0 0 0 0 0 -0 -0 -0 -0 0 0 0 0 0 0 0 0 0 0 0 0 0 0 0 0 0
0 0 0 0 0 0 0 0 0 0 0 0 0 0 0 0 0 0 0 0 0 0 0 0 0 0 0 0 0 0 0 0 0 -0 -0 -0 -0 0 0 0 0 0 0 0 0 0 0 0 0 0 0 0 0 0
0 0 0 0 0 0 0 0 0 0 0 0 0 0 0 0 0 0 0 0 0 0 0 0 0 0 0 0 0 0 0 0 0 0 0 -0 0 0 0 0 0 0 0 0 0 0 0 0 0 0 0 0 0 0
Wind_Speed_500mb
54 50 46 44 43 42 41 36 36 35 38 36 39 40 39 37 36 20 13 9 12 15 50 55 38 36 30 17 7 13 20 2 7 3 3 4 5 6 7 5 5 10 7 7 6 10 13 10 9 11 19 20 32 41
56 52 48 44 46 43 44 37 36 36 36 36 38 39 40 34 34 22 23 18 28 30 50 78 79 68 55 59 49 17 11 12 9 4 3 5 5 7 5 6 8 5 8 3 10 9 13 22 42 57 56 60 55 57
59 54 49 44 46 44 45 39 35 36 35 37 38 39 41 37 33 27 29 32 28 25 46 15 7 2 42 36 23 21 24 23 15 11 5 5 8 1 6 8 7 8 5 7 11 12 21 40 62 44 61 53 65 70
62 57 52 45 46 44 43 39 35 36 33 37 38 39 40 39 35 32 32 29 21 15 11 18 35 24 13 23 27 52 45 23 26 20 13 6 5 8 5 10 13 18 12 9 13 19 29 35 49 62 66 72 78 77
60 56 53 47 44 48 41 37 36 37 30 37 38 39 38 35 34 31 14 8 8 12 9 29 36 17 29 33 17 30 43 51 28 8 7 6 7 7 7 5 7 9 11 6 26 41 42 49 71 79 76 70 55 48
57 58 57 50 46 45 40 34 37 35 29 35 35 37 36 32 28 24 5 10 13 5 12 9 22 20 40 29 29 8 24 39 27 14 10 9 9 7 6 8 14 35 36 43 30 51 68 74 70 58 55 55 65 76
57 61 55 50 47 40 38 34 38 30 29 34 34 36 35 28 23 14 3 4 12 17 7 12 15 16 32 33 27 4 7 15 21 13 12 11 10 17 5 7 24 51 49 60 61 51 38 31 43 61 63 85 74 58
70 67 58 51 47 39 32 34 31 27 30 32 33 35 30 26 20 3 3 2 9 18 9 5 8 19 21 16 16 8 5 18 17 10 6 6 7 9 7 18 48 59 54 56 54 51 39 59 76 61 69 67 59 57
72 67 62 56 53 43 33 31 26 26 30 30 29 18 1 5 5 2 13 9 7 7 4 4 5 8 26 16 16 11 6 3 4 5 5 8 3 5 18 53 71 73 50 58 56 36 58 58 67 66 60 56 53 56
71 73 61 60 54 47 28 30 28 23 26 21 10 4 5 5 8 12 2 5 5 5 6 6 7 7 11 11 9 13 5 3 4 6 8 1 2 25 50 70 64 62 49 38 34 38 54 62 61 57 54 52 47 48
68 72 71 59 45 40 29 31 25 17 17 7 7 8 7 8 8 7 5 7 7 4 8 10 14 11 13 7 5 9 6 5 5 3 3 1 5 41 88 88 57 43 37 31 34 44 51 51 51 60 53 47 42 40
63 67 67 46 44 35 34 31 16 11 9 6 2 4 8 6 5 4 5 6 6 7 8 10 19 17 15 10 8 7 5 4 6 9 2 5 13 70 78 87 63 43 37 33 40 52 51 47 44 47 46 44 42 40
60 59 51 50 47 34 33 26 9 9 6 5 4 4 2 6 1 6 1 3 5 5 10 13 10 10 8 7 7 5 6 4 23 9 6 4 46 81 83 78 77 62 45 32 48 63 60 50 54 48 43 38 40 40
51 50 51 44 42 33 34 16 11 11 9 7 6 2 7 5 5 5 7 6 9 12 29 31 14 5 5 6 4 5 5 5 6 10 10 15 62 76 84 87 81 76 57 39 50 65 56 49 55 55 50 50 52 47
47 50 37 35 28 33 24 14 16 17 10 7 7 6 9 3 3 7 3 4 15 26 31 16 4 5 6 5 6 6 8 8 7 7 9 48 68 74 79 85 82 81 60 43 53 63 57 51 50 54 57 55 57 51
46 41 43 37 34 30 22 20 19 15 9 7 8 4 7 5 5 1 4 8 17 25 14 6 5 5 7 4 9 10 6 5 7 12 51 54 74 77 78 80 77 65 52 51 52 57 58 50 49 48 50 54 55 55
44 40 46 38 36 30 28 25 16 9 8 7 10 12 8 3 5 5 6 10 16 13 3 5 8 3 5 6 7 5 4 9 38 49 49 57 63 71 73 71 65 54 62 49 45 55 54 45 47 50 56 57 60 60
42 40 37 42 43 36 35 15 10 9 11 15 6 8 12 12 6 2 3 13 6 4 5 6 5 9 6 4 3 5 20 34 40 48 53 54 55 59 61 63 60 57 52 41 37 53 51 45 49 49 50 55 56 61
37 39 43 47 45 24 14 15 10 7 18 9 10 19 15 17 16 11 6 11 15 17 13 9 7 4 2 3 7 21 34 41 47 53 47 45 45 51 54 53 52 49 49 31 35 48 48 39 38 40 44 50 52 54
39 49 51 50 36 11 9 8 12 7 9 8 10 30 19 12 15 12 11 14 14 9 11 6 3 4 1 10 13 23 38 45 40 43 45 52 48 47 49 53 52 47 38 36 23 32 40 36 35 36 39 46 48 46
57 49 44 47 23 7 8 8 11 9 7 11 23 27 16 19 11 5 9 9 12 7 6 7 7 4 6 8 11 26 38 40 34 32 39 49 47 46 49 49 46 43 40 37 24 20 30 33 32 32 34 38 38 38
53 45 38 40 11 10 7 11 6 6 9 12 26 18 13 11 12 6 9 10 7 6 5 2 4 3 6 10 18 28 36 33 24 26 29 36 40 42 46 47 44 44 40 37 20 7 13 18 23 27 31 34 36 34
52 41 26 13 9 17 6 13 8 9 6 8 20 11 7 9 16 19 8 6 8 9 8 7 4 4 3 6 12 29 39 34 27 28 32 36 35 35 38 38 36 42 40 29 16 9 2 6 15 20 21 22 24 31
40 17 11 15 13 10 9 10 12 9 8 6 8 8 8 13 25 6 4 9 19 17 12 8 9 7 1 6 14 30 40 40 28 23 31 40 43 40 38 35 33 36 36 30 12 3 6 4 3 13 14 14 16 18
13 15 11 9 14 10 9 8 8 6 7 7 8 6 6 14 5 4 8 20 31 26 18 14 10 6 2 5 9 24 36 41 35 31 27 31 37 38 37 39 34 35 40 34 30 6 5 15 12 7 9 10 9 11
7 15 14 17 11 10 11 9 13 10 7 7 7 15 9 7 5 6 7 35 41 34 26 23 18 12 5 3 5 23 35 37 33 25 29 31 32 38 43 46 50 43 39 37 31 23 5 2 9 21 20 13 5 0
7 10 12 16 10 7 5 5 12 9 8 8 8 6 6 6 9 7 21 31 32 30 25 20 15 4 3 5 6 19 27 31 32 27 23 28 27 37 41 41 43 45 44 38 33 29 18 6 4 13 29 24 12 7
10 7 9 13 12 12 4 6 8 8 8 13 16 6 15 9 6 19 20 27 28 30 23 15 10 7 9 5 9 19 24 26 26 19 8 16 27 40 42 39 36 32 34 36 29 26 23 18 14 16 34 40 29 18
8 7 16 5 9 8 13 9 10 10 14 19 8 6 9 8 20 26 37 39 37 27 21 20 21 10 3 6 13 20 26 32 38 40 43 46 48 48 49 47 45 37 33 37 31 21 23 19 32 21 30 43 43 34
9 17 9 12 9 9 10 12 15 15 18 27 26 32 31 34 35 40 41 38 32 26 24 23 20 12 4 4 10 17 25 31 39 44 48 47 48 48 48 48 48 44 38 43 47 31 20 23 27 38 31 42 50 52
12 19 11 9 9 10 21 22 26 31 28 19 35 51 37 33 36 31 31 29 26 23 23 21 17 10 7 2 7 15 21 26 33 39 41 40 37 39 42 44 46 45 40 40 46 36 31 18 18 30 36 38 56 62
16 14 16 6 6 36 39 14 11 14 18 19 19 29 37 21 12 15 28 24 25 21 19 17 15 10 5 8 11 16 21 27 34 41 42 40 36 36 39 40 41 43 39 36 37 43 42 30 17 20 33 45 54 69
21 18 27 19 15 8 12 19 11 11 11 11 13 27 18 12 10 13 24 16 14 19 19 15 12 9 7 8 11 15 22 31 36 37 36 36 34 33 34 36 37 39 40 36 34 38 42 43 25 11 19 31 50 73
Wind_Direction_500mb
263 266 270 275 281 286 292 300 306 311 315 329 335 334 334 335 331 346 336 305 309 270 282 275 268 256 256 238 210 301 330 339 340 345 304 289 276 355 307 298 197 182 199 209 211 229 264 154 100 208 259 256 286 281
260 261 265 271 277 284 287 294 301 305 311 323 330 331 331 332 328 325 309 299 296 281 272 289 288 278 269 266 263 243 243 299 284 44 10 325 329 305 297 290 331 304 196 248 213 231 243 260 273 290 290 281 283 281
257 257 261 267 274 279 284 289 296 300 307 320 326 329 327 328 327 320 301 301 312 296 305 305 336 303 307 300 272 223 246 224 229 237 257 260 255 261 273 263 297 294 272 246 329 269 269 295 296 313 315 282 294 296
254 255 256 259 268 276 280 286 294 295 305 317 323 326 324 326 329 323 312 308 286 274 287 290 320 344 352 334 262 236 251 241 236 280 217 243 262 230 244 257 249 256 318 260 255 282 306 284 292 292 295 295 296 301
242 253 256 255 260 272 276 282 290 289 305 314 320 321 322 325 327 325 332 340 245 229 286 294 325 1 13 8 270 242 237 236 233 227 219 219 236 261 262 270 253 211 221 253 290 307 292 283 296 303 300 302 301 300
229 241 250 251 248 267 274 280 286 289 306 309 316 315 316 321 321 344 142 90 60 190 307 306 312 320 359 354 341 270 224 220 207 204 221 239 233 209 265 264 243 270 290 291 278 285 292 288 298 308 312 310 309 304
226 233 244 248 245 254 269 278 281 288 301 310 311 309 310 308 300 308 225 220 237 309 293 297 301 308 338 335 334 3 192 186 199 233 221 233 230 186 247 268 289 305 303 303 304 310 315 328 325 322 314 313 310 308
225 229 237 247 239 249 265 274 280 293 302 308 310 305 306 287 282 166 93 323 259 251 246 295 281 316 341 322 326 292 225 214 218 225 215 210 192 214 263 280 297 305 310 305 315 315 327 332 328 311 313 318 316 313
225 229 226 242 237 239 256 269 277 292 305 314 308 308 278 142 153 181 314 323 195 212 285 282 296 298 330 317 305 285 247 263 282 236 225 170 175 226 327 335 323 315 305 295 320 322 334 330 325 317 329 333 328 326
225 225 225 236 240 236 247 259 271 294 308 313 287 216 176 209 232 307 184 164 190 213 227 255 269 265 305 307 300 310 321 255 264 233 148 215 113 355 332 326 320 324 337 323 326 330 327 329 331 334 340 339 342 336
221 227 224 226 228 225 241 253 267 301 308 262 212 195 194 256 238 225 209 205 168 237 226 243 251 278 288 266 281 260 292 256 269 85 225 129 30 344 337 338 346 341 325 322 329 336 335 330 333 341 350 353 348 352
223 227 230 219 226 217 242 250 259 288 270 273 222 162 163 197 216 239 222 144 195 226 218 223 289 272 289 258 261 270 273 264 255 340 127 43 347 336 338 339 341 344 344 329 340 345 341 340 346 358 357 1 356 14
225 231 224 224 223 225 241 237 241 251 249 137 151 145 160 177 66 231 346 333 333 253 254 279 290 265 258 246 298 304 293 322 314 15 45 63 331 337 339 339 345 1 2 349 352 357 0 359 359 10 15 12 28 33
217 222 222 225 207 230 234 212 215 214 182 171 162 340 185 211 228 194 181 205 275 264 310 308 283 252 332 2 317 296 338 322 40 19 356 334 333 332 338 346 345 349 355 350 356 1 4 8 8 12 19 27 38 46
211 211 215 202 215 225 205 176 205 190 175 173 187 217 211 215 169 174 186 323 359 341 330 322 7 27 6 329 17 355 5 41 18 10 309 317 329 334 337 342 347 352 356 359 357 4 8 11 18 25 31 35 40 46
194 195 200 206 217 204 157 182 170 168 186 205 226 237 223 102 12 53 354 337 342 337 346 43 67 54 30 5 41 11 32 17 313 321 317 329 330 333 337 346 350 356 353 350 354 4 9 14 23 30 30 41 46 55
202 195 197 196 194 154 171 163 168 192 194 214 234 225 238 176 194 271 315 328 330 324 41 59 55 18 341 47 33 38 11 309 316 318 328 328 328 330 338 345 353 358 5 353 356 8 15 16 26 34 39 42 52 56
198 194 183 184 154 168 166 168 185 196 223 222 216 175 156 136 157 118 14 344 336 32 58 83 95 47 45 73 11 337 312 327 325 324 323 324 331 342 348 350 353 6 12 3 3 12 18 25 29 37 38 42 51 58
191 177 168 152 161 146 161 186 193 221 220 199 206 154 139 128 109 102 74 50 82 100 98 69 71 56 54 18 304 328 345 338 324 326 325 330 348 350 351 352 359 7 19 6 1 12 20 31 37 38 42 47 51 56
170 155 153 164 157 139 157 180 193 223 206 194 164 153 150 139 117 79 77 82 107 68 61 59 89 123 292 313 331 352 351 342 335 329 333 344 354 354 357 358 354 1 17 20 338 4 18 34 47 47 48 50 51 55
153 150 169 174 177 181 186 181 189 209 189 171 157 136 135 141 130 92 61 56 63 49 83 108 99 25 331 335 349 347 343 344 340 335 332 334 347 352 357 355 352 359 7 11 10 354 11 34 49 57 56 55 51 52
152 160 162 168 190 195 229 202 201 181 176 143 161 147 143 151 154 133 118 62 79 85 102 94 127 195 5 23 1 346 347 347 345 343 351 352 351 351 354 357 355 354 2 2 2 1 358 30 53 58 60 60 55 57
148 151 147 168 183 193 233 185 197 184 149 184 155 128 139 144 156 146 83 95 126 133 127 143 146 150 38 356 343 359 2 359 356 356 360 355 353 360 356 359 3 3 0 9 38 98 26 35 44 44 53 52 51 57
146 144 177 188 189 193 192 191 188 182 186 160 149 130 147 129 153 94 128 157 160 147 152 151 149 147 133 336 352 1 5 4 356 355 2 353 3 7 1 1 6 11 9 16 41 3 209 189 30 16 24 32 55 62
162 195 191 199 194 182 193 170 176 174 180 167 147 126 149 142 106 150 176 176 169 167 167 163 159 161 244 324 352 3 5 6 2 357 358 357 0 2 5 5 10 8 7 9 19 15 214 207 213 255 309 341 13 61
203 199 184 195 180 189 191 161 181 174 153 156 173 127 130 103 126 201 208 178 175 173 175 179 175 151 90 14 22 5 5 1 0 355 3 1 1 2 359 355 358 2 4 359 351 354 304 261 241 232 237 253 289 131
217 216 202 210 202 200 197 177 148 134 170 176 150 115 101 135 203 185 155 166 174 174 170 167 156 143 292 178 14 4 359 358 358 352 353 5 6 15 6 357 351 352 352 344 338 334 311 291 253 206 207 229 242 241
236 213 197 186 206 214 197 167 139 166 185 149 120 129 159 171 158 164 173 174 165 157 152 166 178 150 137 146 357 347 344 353 360 1 347 8 16 13 7 2 354 341 346 350 323 316 319 274 231 220 210 211 215 214
224 207 197 242 203 204 213 192 190 179 153 150 108 116 127 105 142 150 150 151 149 148 153 153 144 152 130 20 1 355 354 357 4 9 8 2 1 5 2 357 356 352 351 351 348 301 295 305 236 219 214 213 212 213
227 196 211 210 180 199 203 192 150 144 142 145 122 112 109 123 134 143 146 149 157 166 163 163 153 168 154 356 2 353 357 1 6 8 3 358 354 351 351 353 354 357 357 354 353 341 294 276 252 231 208 210 208 207
202 203 215 225 185 158 153 145 133 130 129 122 141 133 128 122 140 155 170 171 176 181 182 182 181 178 186 241 332 335 341 351 356 356 354 350 347 348 353 355 356 356 360 354 357 356 345 319 262 229 224 219 211 209
208 205 189 164 96 146 143 110 78 99 109 111 117 134 132 122 104 145 152 172 190 197 201 200 210 211 256 296 313 326 337 347 348 350 348 347 349 352 355 356 359 360 1 355 353 2 7 355 312 239 234 224 222 206
210 220 216 187 141 180 139 118 108 108 108 123 134 145 122 118 129 149 157 169 200 185 173 192 209 223 249 287 315 333 337 337 339 339 339 343 347 351 355 358 1 3 3 4 1 4 13 18 8 288 244 230 217 208
Wind_Speed_850mb
54 50 46 44 43 42 41 36 36 35 38 36 39 40 39 37 36 20 13 9 12 15 50 55 38 36 30 17 7 13 20 2 7 3 3 4 5 6 7 5 5 10 7 7 6 10 13 10 9 11 19 20 32 41
56 52 48 44 46 43 44 37 36 36 36 36 38 39 40 34 34 22 23 18 28 30 50 78 79 68 55 59 49 17 11 12 9 4 3 5 5 7 5 6 8 5 8 3 10 9 13 22 42 57 56 60 55 57
59 54 49 44 46 44 45 39 35 36 35 37 38 39 41 37 33 27 29 32 28 25 46 15 7 2 42 36 23 21 24 23 15 11 5 5 8 1 6 8 7 8 5 7 11 12 21 40 62 44 61 53 65 70
62 57 52 45 46 44 43 39 35 36 33 37 38 39 40 39 35 32 32 29 21 15 11 18 35 24 13 23 27 52 45 23 26 20 13 6 5 8 5 10 13 18 12 9 13 19 29 35 49 62 66 72 78 77
60 56 53 47 44 48 41 37 36 37 30 37 38 39 38 35 34 31 14 8 8 12 9 29 36 17 29 33 17 30 43 51 28 8 7 6 7 7 7 5 7 9 11 6 26 41 42 49 71 79 76 70 55 48
57 58 57 50 46 45 40 34 37 35 29 35 35 37 36 32 28 24 5 10 13 5 12 9 22 20 40 29 29 8 24 39 27 14 10 9 9 7 6 8 14 35 36 43 30 51 68 74 70 58 55 55 65 76
57 61 55 50 47 40 38 34 38 30 29 34 34 36 35 28 23 14 3 4 12 17 7 12 15 16 32 33 27 4 7 15 21 13 12 11 10 17 5 7 24 51 49 60 61 51 38 31 43 61 63 85 74 58
70 67 58 51 47 39 32 34 31 27 30 32 33 35 30 26 20 3 3 2 9 18 9 5 8 19 21 16 16 8 5 18 17 10 6 6 7 9 7 18 48 59 54 56 54 51 39 59 76 61 69 67 59 57
72 67 62 56 53 43 33 31 26 26 30 30 29 18 1 5 5 2 13 9 7 7 4 4 5 8 26 16 16 11 6 3 4 5 5 8 3 5 18 53 71 73 50 58 56 36 58 58 67 66 60 56 53 56
71 73 61 60 54 47 28 30 28 23 26 21 10 4 5 5 8 12 2 5 5 5 6 6 7 7 11 11 9 13 5 3 4 6 8 1 2 25 50 70 64 62 49 38 34 38 54 62 61 57 54 52 47 48
68 72 71 59 45 40 29 31 25 17 17 7 7 8 7 8 8 7 5 7 7 4 8 10 14 11 13 7 5 9 6 5 5 3 3 1 5 41 88 88 57 43 37 31 34 44 51 51 51 60 53 47 42 40
63 67 67 46 44 35 34 31 16 11 9 6 2 4 8 6 5 4 5 6 6 7 8 10 19 17 15 10 8 7 5 4 6 9 2 5 13 70 78 87 63 43 37 33 40 52 51 47 44 47 46 44 42 40
60 59 51 50 47 34 33 26 9 9 6 5 4 4 2 6 1 6 1 3 5 5 10 13 10 10 8 7 7 5 6 4 23 9 6 4 46 81 83 78 77 62 45 32 48 63 60 50 54 48 43 38 40 40
51 50 51 44 42 33 34 16 11 11 9 7 6 2 7 5 5 5 7 6 9 12 29 31 14 5 5 6 4 5 5 5 6 10 10 15 62 76 84 87 81 76 57 39 50 65 56 49 55 55 50 50 52 47
47 50 37 35 28 33 24 14 16 17 10 7 7 6 9 3 3 7 3 4 15 26 31 16 4 5 6 5 6 6 8 8 7 7 9 48 68 74 79 85 82 81 60 43 53 63 57 51 50 54 57 55 57 51
46 41 43 37 34 30 22 20 19 15 9 7 8 4 7 5 5 1 4 8 17 25 14 6 5 5 7 4 9 10 6 5 7 12 51 54 74 77 78 80 77 65 52 51 52 57 58 50 49 48 50 54 55 55
44 40 46 38 36 30 28 25 16 9 8 7 10 12 8 3 5 5 6 10 16 13 3 5 8 3 5 6 7 5 4 9 38 49 49 57 63 71 73 71 65 54 62 49 45 55 54 45 47 50 56 57 60 60
42 40 37 42 43 36 35 15 10 9 11 15 6 8 12 12 6 2 3 13 6 4 5 6 5 9 6 4 3 5 20 34 40 48 53 54 55 59 61 63 60 57 52 41 37 53 51 45 49 49 50 55 56 61
37 39 43 47 45 24 14 15 10 7 18 9 10 19 15 17 16 11 6 11 15 17 13 9 7 4 2 3 7 21 34 41 47 53 47 45 45 51 54 53 52 49 49 31 35 48 48 39 38 40 44 50 52 54
39 49 51 50 36 11 9 8 12 7 9 8 10 30 19 12 15 12 11 14 14 9 11 6 3 4 1 10 13 23 38 45 40 43 45 52 48 47 49 53 52 47 38 36 23 32 40 36 35 36 39 46 48 46
57 49 44 47 23 7 8 8 11 9 7 11 23 27 16 19 11 5 9 9 12 7 6 7 7 4 6 8 11 26 38 40 34 32 39 49 47 46 49 49 46 43 40 37 24 20 30 33 32 32 34 38 38 38
53 45 38 40 11 10 7 11 6 6 9 12 26 18 13 11 12 6 9 10 7 6 5 2 4 3 6 10 18 28 36 33 24 26 29 36 40 42 46 47 44 44 40 37 20 7 13 18 23 27 31 34 36 34
52 41 26 13 9 17 6 13 8 9 6 8 20 11 7 9 16 19 8 6 8 9 8 7 4 4 3 6 12 29 39 34 27 28 32 36 35 35 38 38 36 42 40 29 16 9 2 6 15 20 21 22 24 31
40 17 11 15 13 10 9 10 12 9 8 6 8 8 8 13 25 6 4 9 19 17 12 8 9 7 1 6 14 30 40 40 28 23 31 40 43 40 38 35 33 36 36 30 12 3 6 4 3 13 14 14 16 18
13 15 11 9 14 10 9 8 8 6 7 7 8 6 6 14 5 4 8 20 31 26 18 14 10 6 2 5 9 24 36 41 35 31 27 31 37 38 37 39 34 35 40 34 30 6 5 15 12 7 9 10 9 11
7 15 14 17 11 10 11 9 13 10 7 7 7 15 9 7 5 6 7 35 41 34 26 23 18 12 5 3 5 23 35 37 33 25 29 31 32 38 43 46 50 43 39 37 31 23 5 2 9 21 20 13 5 0
7 10 12 16 10 7 5 5 12 9 8 8 8 6 6 6 9 7 21 31 32 30 25 20 15 4 3 5 6 19 27 31 32 27 23 28 27 37 41 41 43 45 44 38 33 29 18 6 4 13 29 24 12 7
10 7 9 13 12 12 4 6 8 8 8 13 16 6 15 9 6 19 20 27 28 30 23 15 10 7 9 5 9 19 24 26 26 19 8 16 27 40 42 39 36 32 34 36 29 26 23 18 14 16 34 40 29 18
8 7 16 5 9 8 13 9 10 10 14 19 8 6 9 8 20 26 37 39 37 27 21 20 21 10 3 6 13 20 26 32 38 40 43 46 48 48 49 47 45 37 33 37 31 21 23 19 32 21 30 43 43 34
9 17 9 12 9 9 10 12 15 15 18 27 26 32 31 34 35 40 41 38 32 26 24 23 20 12 4 4 10 17 25 31 39 44 48 47 48 48 48 48 48 44 38 43 47 31 20 23 27 38 31 42 50 52
12 19 11 9 9 10 21 22 26 31 28 19 35 51 37 33 36 31 31 29 26 23 23 21 17 10 7 2 7 15 21 26 33 39 41 40 37 39 42 44 46 45 40 40 46 36 31 18 18 30 36 38 56 62
16 14 16 6 6 36 39 14 11 14 18 19 19 29 37 21 12 15 28 24 25 21 19 17 15 10 5 8 11 16 21 27 34 41 42 40 36 36 39 40 41 43 39 36 37 43 42 30 17 20 33 45 54 69
21 18 27 19 15 8 12 19 11 11 11 11 13 27 18 12 10 13 24 16 14 19 19 15 12 9 7 8 11 15 22 31 36 37 36 36 34 33 34 36 37 39 40 36 34 38 42 43 25 11 19 31 50 73
Wind_Direction_850mb
263 266 270 275 281 286 292 300 306 311 315 329 335 334 334 335 331 346 336 305 309 270 282 275 268 256 256 238 210 301 330 339 340 345 304 289 276 355 307 298 197 182 199 209 211 229 264 154 100 208 259 256 286 281
260 261 265 271 277 284 287 294 301 305 311 323 330 331 331 332 328 325 309 299 296 281 272 289 288 278 269 266 263 243 243 299 284 44 10 325 329 305 297 290 331 304 196 248 213 231 243 260 273 290 290 281 283 281
257 257 261 267 274 279 284 289 296 300 307 320 326 329 327 328 327 320 301 301 312 296 305 305 336 303 307 300 272 223 246 224 229 237 257 260 255 261 273 263 297 294 272 246 329 269 269 295 296 313 315 282 294 296
254 255 256 259 268 276 280 286 294 295 305 317 323 326 324 326 329 323 312 308 286 274 287 290 320 344 352 334 262 236 251 241 236 280 217 243 262 230 244 257 249 256 318 260 255 282 306 284 292 292 295 295 296 301
242 253 256 255 260 272 276 282 290 289 305 314 320 321 322 325 327 325 332 340 245 229 286 294 325 1 13 8 270 242 237 236 233 227 219 219 236 261 262 270 253 211 221 253 290 307 292 283 296 303 300 302 301 300
229 241 250 251 248 267 274 280 286 289 306 309 316 315 316 321 321 344 142 90 60 190 307 306 312 320 359 354 341 270 224 220 207 204 221 239 233 209 265 264 243 270 290 291 278 285 292 288 298 308 312 310 309 304
226 233 244 248 245 254 269 278 281 288 301 310 311 309 310 308 300 308 225 220 237 309 293 297 301 308 338 335 334 3 192 186 199 233 221 233 230 186 247 268 289 305 303 303 304 310 315 328 325 322 314 313 310 308
225 229 237 247 239 249 265 274 280 293 302 308 310 305 306 287 282 166 93 323 259 251 246 295 281 316 341 322 326 292 225 214 218 225 215 210 192 214 263 280 297 305 310 305 315 315 327 332 328 311 313 318 316 313
225 229 226 242 237 239 256 269 277 292 305 314 308 308 278 142 153 181 314 323 195 212 285 282 296 298 330 317 305 285 247 263 282 236 225 170 175 226 327 335 323 315 305 295 320 322 334 330 325 317 329 333 328 326
225 225 225 236 240 236 247 259 271 294 308 313 287 216 176 209 232 307 184 164 190 213 227 255 269 265 305 307 300 310 321 255 264 233 148 215 113 355 332 326 320 324 337 323 326 330 327 329 331 334 340 339 342 336
221 227 224 226 228 225 241 253 267 301 308 262 212 195 194 256 238 225 209 205 168 237 226 243 251 278 288 266 281 260 292 256 269 85 225 129 30 344 337 338 346 341 325 322 329 336 335 330 333 341 350 353 348 352
223 227 230 219 226 217 242 250 259 288 270 273 222 162 163 197 216 239 222 144 195 226 218 223 289 272 289 258 261 270 273 264 255 340 127 43 347 336 338 339 341 344 344 329 340 345 341 340 346 358 357 1 356 14
225 231 224 224 223 225 241 237 241 251 249 137 151 145 160 177 66 231 346 333 333 253 254 279 290 265 258 246 298 304 293 322 314 15 45 63 331 337 339 339 345 1 2 349 352 357 0 359 359 10 15 12 28 33
217 222 222 225 207 230 234 212 215 214 182 171 162 340 185 211 228 194 181 205 275 264 310 308 283 252 332 2 317 296 338 322 40 19 356 334 333 332 338 346 345 349 355 350 356 1 4 8 8 12 19 27 38 46
211 211 215 202 215 225 205 176 205 190 175 173 187 217 211 215 169 174 186 323 359 341 330 322 7 27 6 329 17 355 5 41 18 10 309 317 329 334 337 342 347 352 356 359 357 4 8 11 18 25 31 35 40 46
194 195 200 206 217 204 157 182 170 168 186 205 226 237 223 102 12 53 354 337 342 337 346 43 67 54 30 5 41 11 32 17 313 321 317 329 330 333 337 346 350 356 353 350 354 4 9 14 23 30 30 41 46 55
202 195 197 196 194 154 171 163 168 192 194 214 234 225 238 176 194 271 315 328 330 324 41 59 55 18 341 47 33 38 11 309 316 318 328 328 328 330 338 345 353 358 5 353 356 8 15 16 26 34 39 42 52 56
198 194 183 184 154 168 166 168 185 196 223 222 216 175 156 136 157 118 14 344 336 32 58 83 95 47 45 73 11 337 312 327 325 324 323 324 331 342 348 350 353 6 12 3 3 12 18 25 29 37 38 42 51 58
191 177 168 152 161 146 161 186 193 221 220 199 206 154 139 128 109 102 74 50 82 100 98 69 71 56 54 18 304 328 345 338 324 326 325 330 348 350 351 352 359 7 19 6 1 12 20 31 37 38 42 47 51 56
170 155 153 164 157 139 157 180 193 223 206 194 164 153 150 139 117 79 77 82 107 68 61 59 89 123 292 313 331 352 351 342 335 329 333 344 354 354 357 358 354 1 17 20 338 4 18 34 47 47 48 50 51 55
153 150 169 174 177 181 186 181 189 209 189 171 157 136 135 141 130 92 61 56 63 49 83 108 99 25 331 335 349 347 343 344 340 335 332 334 347 352 357 355 352 359 7 11 10 354 11 34 49 57 56 55 51 52
152 160 162 168 190 195 229 202 201 181 176 143 161 147 143 151 154 133 118 62 79 85 102 94 127 195 5 23 1 346 347 347 345 343 351 352 351 351 354 357 355 354 2 2 2 1 358 30 53 58 60 60 55 57
148 151 147 168 183 193 233 185 197 184 149 184 155 128 139 144 156 146 83 95 126 133 127 143 146 150 38 356 343 359 2 359 356 356 360 355 353 360 356 359 3 3 0 9 38 98 26 35 44 44 53 52 51 57
146 144 177 188 189 193 192 191 188 182 186 160 149 130 147 129 153 94 128 157 160 147 152 151 149 147 133 336 352 1 5 4 356 355 2 353 3 7 1 1 6 11 9 16 41 3 209 189 30 16 24 32 55 62
162 195 191 199 194 182 193 170 176 174 180 167 147 126 149 142 106 150 176 176 169 167 167 163 159 161 244 324 352 3 5 6 2 357 358 357 0 2 5 5 10 8 7 9 19 15 214 207 213 255 309 341 13 61
203 199 184 195 180 189 191 161 181 174 153 156 173 127 130 103 126 201 208 178 175 173 175 179 175 151 90 14 22 5 5 1 0 355 3 1 1 2 359 355 358 2 4 359 351 354 304 261 241 232 237 253 289 131
217 216 202 210 202 200 197 177 148 134 170 176 150 115 101 135 203 185 155 166 174 174 170 167 156 143 292 178 14 4 359 358 358 352 353 5 6 15 6 357 351 352 352 344 338 334 311 291 253 206 207 229 242 241
236 213 197 186 206 214 197 167 139 166 185 149 120 129 159 171 158 164 173 174 165 157 152 166 178 150 137 146 357 347 344 353 360 1 347 8 16 13 7 2 354 341 346 350 323 316 319 274 231 220 210 211 215 214
224 207 197 242 203 204 213 192 190 179 153 150 108 116 127 105 142 150 150 151 149 148 153 153 144 152 130 20 1 355 354 357 4 9 8 2 1 5 2 357 356 352 351 351 348 301 295 305 236 219 214 213 212 213
227 196 211 210 180 199 203 192 150 144 142 145 122 112 109 123 134 143 146 149 157 166 163 163 153 168 154 356 2 353 357 1 6 8 3 358 354 351 351 353 354 357 357 354 353 341 294 276 252 231 208 210 208 207
202 203 215 225 185 158 153 145 133 130 129 122 141 133 128 122 140 155 170 171 176 181 182 182 181 178 186 241 332 335 341 351 356 356 354 350 347 348 353 355 356 356 360 354 357 356 345 319 262 229 224 219 211 209
208 205 189 164 96 146 143 110 78 99 109 111 117 134 132 122 104 145 152 172 190 197 201 200 210 211 256 296 313 326 337 347 348 350 348 347 349 352 355 356 359 360 1 355 353 2 7 355 312 239 234 224 222 206
210 220 216 187 141 180 139 118 108 108 108 123 134 145 122 118 129 149 157 169 200 185 173 192 209 223 249 287 315 333 337 337 339 339 339 343 347 351 355 358 1 3 3 4 1 4 13 18 8 288 244 230 217 208